Regional Weather Roundup
Issued by NWS Charleston, SC

Current Version | Previous Version | Text Only | Print | Product List | Glossary Off
Versions: 1 2 3 4 5 6 7 8 9 10 11 12 13 14 15 16 17 18 19 20 21 22 23 24 25 26 27 28 29 30 31 32 33 34 35 36 37 38 39 40 41 42 43 44 45 46 47 48 49 50
000 ASUS42 KCHS 190027 RWRCHS REGIONAL WEATHER ROUNDUP NATIONAL WEATHER SERVICE CHARLESTON SC 800 PM EDT WED OCT 18 2017 NOTE: "FAIR" INDICATES FEW OR NO CLOUDS BELOW 12,000 FEET WITH NO SIGNIFICANT WEATHER AND/OR OBSTRUCTIONS TO VISIBILITY. NOT ALL STATIONS ARE QUALITY CONTROLLED. USE DATA WITH CAUTION... ESPECIALLY DEWPOINT OBSERVATIONS. SCZ027-030-031-034>040-042>050-190100- ...SOUTHEAST SOUTH CAROLINA... CITY SKY/WX TMP DP RH WIND PRES REMARKS N CHARLESTON CLEAR 64 58 80 NE7 30.26R 6HR MIN TEMP: 64; 6HR MAX TEMP: 76; WATERFRONT PRK N/A 70 61 73 NE8 30.10R JOHNS ISLAND FAIR 66 61 82 NE6 30.26R PINOPOLIS N/A 70 57 64 NE9 30.18R MONCKS CORNER FAIR 61 55 82 N3 30.27R SUMMERVILLE FAIR 61 55 82 CALM 30.28R BEAUFORT MCAS CLEAR 65 60 84 NE12 30.25R 6HR MIN TEMP: 65; 6HR MAX TEMP: 77; BEAUFORT ARPT FAIR 68 59 73 NE12 30.25R HILTON HEAD IS CLEAR 70 63 78 NE10 30.25 WALTERBORO CLEAR 61 55 82 N5 30.28R ALLENDALE NOT AVBL ...SOUTHERN MIDLANDS AND PEE DEE... CITY SKY/WX TMP DP RH WIND PRES REMARKS GEORGETOWN FAIR 61 61 100 N3 30.28R KINGSTREE FAIR 55 54 94 CALM 30.29R ORANGEBURG CLEAR 61 45 55 NE3 30.29R 6HR MIN TEMP: 61; 6HR MAX TEMP: 73; BARNWELL N/A 59 48 67 CALM 30.28S AIKEN FAIR 54 43 66 CALM 30.33R MANNING FOG 55 54 94 MISG 30.29R VSB<1/4 COLUMBIA CLEAR 61 44 53 CALM 30.29R 6HR MIN TEMP: 60; 6HR MAX TEMP: 74; SUMTER CLEAR 55 44 66 NE5 30.27R 6HR MIN TEMP: 55; 6HR MAX TEMP: 72; FLORENCE CLEAR 56 49 77 N5 30.30R 6HR MIN TEMP: 56; 6HR MAX TEMP: 71; MYRTLE BEACH CLEAR 65 57 75 N8 30.29R N MYRTLE BEACH CLEAR 62 57 83 NE3 30.27S 6HR MIN TEMP: 61; 6HR MAX TEMP: 75; $$ GAZ063-065-086>088-099>101-113>116-118-119-134>141-150-190100- ...SOUTHEAST GEORGIA... CITY SKY/WX TMP DP RH WIND PRES REMARKS SAVANNAH ARPT PTCLDY 68 59 73 NE7 30.24R 6HR MIN TEMP: 68; 6HR MAX TEMP: 77; HUNTER AAF CLEAR 68 62 79 NE5 30.21R 6HR MIN TEMP: 68; 6HR MAX TEMP: 76; 6HR PCP: TRACE; FORT STEWART CLEAR 64 60 85 NE3 30.22R 6HR MIN TEMP: 64; 6HR MAX TEMP: 77; STATESBORO CLEAR 64 53 68 CALM 30.27R SYLVANIA CLEAR 62 55 80 NE5 30.28R CLAXTON FAIR 63 60 91 CALM 30.25R ...CSRA...CENTRAL AND FAR SOUTHEAST GEORGIA... CITY SKY/WX TMP DP RH WIND PRES REMARKS THOMSON CLEAR 54 46 73 CALM 30.34R AUGUSTA-BUSH CLEAR 55 46 71 CALM 30.27R 6HR MIN TEMP: 55; 6HR MAX TEMP: 77; AUGUSTA-DANIEL CLEAR 66 41 40 NE8 30.28S SWAINSBORO FAIR 63 46 55 MISG 30.27R VIDALIA CLEAR 64 54 68 NE6 30.25R EASTMAN FAIR 62 32 32 NE5 30.28R HAZLEHURST FAIR 68 42 39 NE7 30.23R ALMA CLEAR 64 59 83 CALM 30.22R 6HR MIN TEMP: 64; 6HR MAX TEMP: 79; WAYCROSS CLEAR 66 58 74 E5 30.22R JESUP NOT AVBL BAXLEY FAIR 61 59 94 CALM 30.23R BRUNSWICK CLOUDY 70 61 73 NE10 30.22R SAINT SIMONS CLOUDY 72 66 81 NE14G25 30.20R 6HR MIN TEMP: 72; 6HR MAX TEMP: 75; $$ SCZ027-028-034-036>038-045-046-048>050-GAZ119-141-190100- ...LAKE AND SUPPLEMENTAL COASTAL OBSERVATIONS... STATION/POSITION TIME TEMP WIND PRES WAVE SWELL AIR SEA DIR/SP/G HT/PER HT/PER/DIR (UTC) (F) (DEG/KT/KT) (MB) (FT/S) (FT/S/D) WINYAH BAY 2330 70 30/ 5 1025.0R LAKE MURRAY 2320 65 CALM / 2 1024.7 ACE BASIN NERRS 2345 65 CALM 1024.0S FORT PULASKI 0000 71 73 50/ 13/ 17 1024.2 SAPELO ISLAND 0000 71 50/ 10 1023.0 $$ ANZ835-935-AMZ111-154-330-350-352-354-370-450-454-472-190100- ...C-MAN AND BUOY OBSERVATIONS... STATION/POSITION TIME TEMP WIND PRES WAVE SWELL AIR SEA DIR/SP/G HT/PER HT/PER/DIR (UTC) (F) (DEG/KT/KT) (MB) (FT/S) (FT/S/D) BUOY 41004 0010 74 80 40/ 21/ 27 1022.5 BUOY 41008 2350 73 78 60/ 23/ 27 1021.7R 7/10 3/130/10 FOLLY BEACH CMAN 0000 70 30/ 13/ 15 1024.9R CAPERS NEARSHORE 0008 69 75 40/ 14/ 21 1023.9R FRIPP NEARSHORE 0008 71 60/ 17/ 23 N/A STATION/POSITION TIME TEMP WIND PRES WAVE SWELL AIR SEA DIR/SP/G HT/PER HT/PER/DIR (UTC) (F) (DEG/KT/KT) (MB) (FT/S) (FT/S/D) 5E ST. MARYS GA 0000 78 N/A 7/ 6 2/ 90/11 FRYING PAN BUOY 0010 72 77 30/ 19/ 25 1023.4 BUOY 41025 2350 72 82 30/ 17/ 21 1024.4R 7/ 7 3/120/ 9 CAPE LOOKOUT NC 0000 65 20/ 14/ 16 1025.2R BUOY 41002 2350 76 80 50/ 21/ 25 1020.4R 10/ 8 BUOY 41010 NOT AVBL ST AUGUSTINE FL 0000 75 78 20/ 24/ 26 1020.7R $$

USA.gov is the U.S. government's official web portal to all federal, state and local government web resources and services.